Home > Weather > Arviat > Past weeks

Flag for Canada Weather for the Past 2 Weeks in Arviat, Nunavut, Canada

Now
21 °F

Sunny.


Feels Like: 8 °F
Forecast: 12 / 25 °F
Wind: 14 mph from North

Location: Arviat Airport

Current Time: May 4, 2016 at 10:59:46 PM

Latest Report: May 4, 2016 at 10:00 PM


Visibility: 9 mi

Pressure: 29.84 "Hg

Humidity: 86%

Dew Point: 18 °F

Location of ArviatLocation

Historic Weather in Arviat — Graph

°F

Arviat Temperature Yesterday

Maximum temperature yesterday: 28 °F (at 12:00 AM)
Minimum temperature yesterday: 12 °F (at 6:00 AM)
Average temperature yesterday: 20 °F

High & Low Weather Summary for the Past Weeks

 TemperatureHumidityPressure
High37 °F (Apr 19, 10:00 PM)100% (Apr 20, 2:00 AM)30.56 "Hg (Apr 20, 2:00 AM)
Low-8 °F (Apr 22, 5:00 AM)68% (Apr 27, 2:00 PM)29.27 "Hg (Apr 20, 2:00 AM)
Average14 °F86%30.21 "Hg
* Reported Apr 19 9:00 PM — May 4 9:00 PM, Arviat, Weather by CustomWeather, © 2016

Note: Actual official high and low records may vary slightly from our data, if they occured in-between our weather recording intervals... More about our weather records

Advertising

Arviat Weather History for the Previous 24 Hours

Scroll right to see more
 ConditionsComfort  
Time TempWeatherWind HumidityBarometerVisibility
9:00 PM
Wed, May 4
23 °FPartly sunny.14 mph86%29.83 "Hg9 mi
8:00 PM27 °FScattered clouds.15 mph86%29.81 "Hg9 mi
7:00 PM28 °FPartly sunny.16 mph86%29.79 "Hg9 mi
6:00 PM28 °FOvercast.15 mph93%29.79 "Hg9 mi
5:00 PM28 °FOvercast.14 mph93%29.78 "Hg15 mi
4:00 PM30 °FMore clouds than sun.10 mph93%29.77 "Hg10 mi
3:00 PM28 °FLow clouds.5 mph100%29.77 "Hg10 mi
2:00 PM30 °FLow clouds.6 mph93%29.78 "Hg10 mi
1:00 PM30 °FMostly cloudy.9 mph93%29.78 "Hg10 mi
12:55 PM30 °FMostly cloudy.9 mph93%29.78 "Hg10 mi
12:00 PM28 °FMore clouds than sun.8 mph100%29.80 "Hg10 mi
11:00 AM30 °FOvercast.13 mph86%29.83 "Hg10 mi
10:00 AM30 °FMore clouds than sun.13 mph86%29.85 "Hg12 mi
9:00 AM28 °FPartly sunny.12 mph93%29.87 "Hg15 mi
8:00 AM28 °FPartly sunny.8 mph86%29.90 "Hg15 mi
7:00 AM21 °FPartly sunny.7 mph86%29.93 "Hg15 mi
6:00 AM16 °FSunny.6 mph93%29.96 "Hg9 mi
5:00 AM14 °FPassing clouds.6 mph92%29.98 "Hg9 mi
4:00 AM14 °FPassing clouds.8 mph92%30.00 "Hg9 mi
3:00 AM14 °FClear.7 mph100%30.03 "Hg9 mi
2:00 AM16 °FPassing clouds.8 mph93%30.04 "Hg9 mi
1:00 AM16 °FPassing clouds.7 mph93%30.07 "Hg9 mi
12:00 AM16 °FPassing clouds.5 mph93%30.07 "Hg9 mi
11:00 PM
Tue, May 3
18 °FClear.7 mph86%30.09 "Hg9 mi
10:00 PM19 °FSunny.6 mph86%30.10 "Hg9 mi
Weather by CustomWeather, © 2016

See weather overviewHow to use our weather pages